Roseau, MN

10:49 AM CDT on August 30, 2016 (GMT -0500)
Roseau Municipal-Billberg

Weather History for KROX - March, 2013

Change the Weather History Date:

Tuesday, March 5, 2013

  Actual Average Record
Temperature  
Mean Temperature 19 °F -  
Max Temperature 24 °F 27 °F 44 °F (1973)
Min Temperature 14 °F 4 °F -24 °F (1978)
Degree Days  
Heating Degree Days 46    
Moisture  
Dew Point 16 °F    
Average Humidity 82    
Maximum Humidity 86    
Minimum Humidity 74    
Precipitation  
Precipitation 0.00 in - - ()
Sea Level Pressure  
Sea Level Pressure 30.26 in    
Wind  
Wind Speed 13 mph (NE)    
Max Wind Speed 20 mph    
Max Gust Speed 23 mph    
Visibility 6 miles    
Events Snow    
Averages and records for this station are not official NWS values.
T = Trace of Precipitation, MM = Missing Value Source: NWS Daily Summary

Daily Weather History Graph

Daily Weather History Graph

Search for Another Location

Airport or City:

Trip Planner

Search our weather history database for the weather conditions in past years. The results will help you decide how hot, cold, wet, or windy it might be!

Date:

Astronomy

Mar. 05, 2013 Rise Set
Actual Time 6:56 AM CST 6:13 PM CST
Civil Twilight 6:24 AM CST 6:44 PM CST
Nautical Twilight 5:48 AM CST 7:21 PM CST
Astronomical Twilight 5:11 AM CST 7:58 PM CST
Moon 2:32 AM CST (3/5) 11:30 AM CST (3/5)
Length of Visible Light 12h 20m
Length of Day
11h 16m
Last Quarter, 40% of the Moon is Illuminated
Mar 5
Last Quarter
Mar 11
New
Mar 19
First Quarter
Mar 27
Full
Apr 2
Last Quarter

Hourly Weather History & Observations

Time (CST) Temp. Windchill Dew Point Humidity Pressure Visibility Wind Dir Wind Speed Gust Speed Precip Events Conditions
12:14 AM 24.8 °F 11.5 °F 19.4 °F 80% 30.12 in 2.5 mi ENE 17.3 mph - N/A Snow Light Snow
12:34 AM 24.8 °F 11.1 °F 19.4 °F 80% 30.11 in 4.0 mi ENE 18.4 mph - N/A Snow Light Snow
12:54 AM 24.8 °F 11.5 °F 19.4 °F 80% 30.11 in 2.0 mi ENE 17.3 mph - N/A Snow Light Snow
1:14 AM 24.8 °F 10.7 °F 19.4 °F 80% 30.12 in 1.8 mi ENE 19.6 mph - N/A Snow Light Snow
1:34 AM 24.8 °F 10.7 °F 19.4 °F 80% 30.12 in 2.0 mi ENE 19.6 mph - N/A Snow Light Snow
1:54 AM 23.0 °F 8.7 °F 19.4 °F 86% 30.13 in 2.5 mi ENE 18.4 mph - N/A Snow Light Snow
2:14 AM 23.0 °F 8.3 °F 19.4 °F 86% 30.13 in 2.5 mi ENE 19.6 mph - N/A Snow Light Snow
2:34 AM 23.0 °F 8.3 °F 17.6 °F 80% 30.13 in 2.0 mi ENE 19.6 mph - N/A Snow Light Snow
2:54 AM 23.0 °F 9.2 °F 17.6 °F 80% 30.14 in 2.0 mi ENE 17.3 mph - N/A Snow Light Snow
3:14 AM 21.2 °F 6.4 °F 17.6 °F 86% 30.14 in 2.5 mi NE 18.4 mph - N/A Snow Light Snow
3:34 AM 21.2 °F 6.0 °F 17.6 °F 86% 30.14 in 3.0 mi NE 19.6 mph 23.0 mph N/A Snow Light Snow
3:54 AM 21.2 °F 7.3 °F 17.6 °F 86% 30.14 in 3.0 mi NE 16.1 mph - N/A Snow Light Snow
4:14 AM 21.2 °F 7.3 °F 17.6 °F 86% 30.15 in 5.0 mi NE 16.1 mph - N/A Snow Light Snow
4:34 AM 21.2 °F 7.3 °F 17.6 °F 86% 30.16 in 5.0 mi NE 16.1 mph - N/A Snow Light Snow
4:54 AM 21.2 °F 7.8 °F 15.8 °F 80% 30.17 in 7.0 mi NE 15.0 mph - N/A Snow Light Snow
5:14 AM 21.2 °F 7.3 °F 15.8 °F 80% 30.17 in 7.0 mi NE 16.1 mph - N/A   Overcast
5:34 AM 21.2 °F 8.3 °F 15.8 °F 80% 30.18 in 5.0 mi NE 13.8 mph - N/A Snow Light Snow
5:54 AM 21.2 °F 6.8 °F 15.8 °F 80% 30.18 in 5.0 mi NE 17.3 mph - N/A Snow Light Snow
6:14 AM 19.4 °F 5.5 °F 15.8 °F 86% 30.19 in 7.0 mi NE 15.0 mph - N/A Snow Light Snow
7:14 AM 19.4 °F 6.6 °F 15.8 °F 86% 30.22 in 5.0 mi NE 12.7 mph - N/A Snow Light Snow
7:34 AM 19.4 °F 7.2 °F 15.8 °F 86% 30.23 in 5.0 mi NE 11.5 mph - N/A Snow Light Snow
7:54 AM 19.4 °F 6.0 °F 15.8 °F 86% 30.23 in 4.0 mi NE 13.8 mph - N/A Snow Light Snow
8:15 AM 19.4 °F 6.6 °F 15.8 °F 86% 30.24 in 4.0 mi NE 12.7 mph - N/A Snow Light Snow
8:34 AM 19.4 °F 6.6 °F 15.8 °F 86% 30.24 in 5.0 mi NE 12.7 mph - N/A Snow Light Snow
8:54 AM 19.4 °F 6.0 °F 15.8 °F 86% 30.24 in 4.0 mi NE 13.8 mph - N/A Snow Light Snow
9:15 AM 19.4 °F 7.2 °F 14.0 °F 80% 30.25 in 10.0 mi NE 11.5 mph - N/A   Scattered Clouds
9:34 AM 19.4 °F 6.0 °F 14.0 °F 80% 30.26 in 10.0 mi NE 13.8 mph - N/A   Clear
9:55 AM 19.4 °F 6.0 °F 14.0 °F 80% 30.27 in 7.0 mi NE 13.8 mph - N/A   Mostly Cloudy
10:14 AM 19.4 °F 6.0 °F 15.8 °F 86% 30.27 in 5.0 mi NE 13.8 mph - N/A   Haze
10:34 AM 19.4 °F 6.6 °F 15.8 °F 86% 30.28 in 7.0 mi NE 12.7 mph - N/A   Mostly Cloudy
10:55 AM 19.4 °F 6.6 °F 15.8 °F 86% 30.28 in 7.0 mi NE 12.7 mph - N/A   Scattered Clouds
11:14 AM 19.4 °F 7.9 °F 15.8 °F 86% 30.28 in 7.0 mi NE 10.4 mph - N/A   Clear
11:34 AM 21.2 °F 8.3 °F 15.8 °F 80% 30.28 in 7.0 mi NE 13.8 mph - N/A Snow Light Snow
11:54 AM 21.2 °F 9.5 °F 15.8 °F 80% 30.28 in 7.0 mi NE 11.5 mph - N/A   Clear
12:14 PM 21.2 °F 9.5 °F 15.8 °F 80% 30.29 in 10.0 mi NE 11.5 mph - N/A   Clear
12:34 PM 21.2 °F 10.1 °F 15.8 °F 80% 30.29 in 5.0 mi NE 10.4 mph - N/A   Haze
12:54 PM 21.2 °F 9.5 °F 15.8 °F 80% 30.29 in 2.5 mi ENE 11.5 mph - N/A   Haze
1:14 PM 21.2 °F 9.5 °F 15.8 °F 80% 30.29 in 1.8 mi ENE 11.5 mph - N/A   Haze
1:34 PM 21.2 °F 10.1 °F 15.8 °F 80% 30.29 in 3.0 mi ENE 10.4 mph - N/A   Haze
1:54 PM 23.0 °F 13.1 °F 15.8 °F 74% 30.30 in 10.0 mi NE 9.2 mph - N/A   Scattered Clouds
2:14 PM 23.0 °F 13.1 °F 17.6 °F 80% 30.30 in 4.0 mi ENE 9.2 mph - N/A   Haze
2:34 PM 23.0 °F 12.4 °F 17.6 °F 80% 30.30 in 5.0 mi ENE 10.4 mph - N/A   Haze
2:54 PM 23.0 °F 12.4 °F 17.6 °F 80% 30.30 in 3.0 mi ENE 10.4 mph - N/A   Haze
3:14 PM 23.0 °F 13.9 °F 17.6 °F 80% 30.31 in 4.0 mi ENE 8.1 mph - N/A   Haze
3:34 PM 23.0 °F 11.7 °F 17.6 °F 80% 30.31 in 10.0 mi East 11.5 mph - N/A   Scattered Clouds
3:54 PM 21.2 °F 10.9 °F 15.8 °F 80% 30.31 in 10.0 mi East 9.2 mph - N/A   Scattered Clouds
4:14 PM 21.2 °F 11.7 °F 17.6 °F 86% 30.31 in 10.0 mi ENE 8.1 mph - N/A   Scattered Clouds
4:34 PM 21.2 °F 12.6 °F 15.8 °F 80% 30.31 in 5.0 mi East 6.9 mph - N/A   Haze
4:54 PM 21.2 °F 11.7 °F 15.8 °F 80% 30.31 in 10.0 mi East 8.1 mph - N/A   Scattered Clouds
5:14 PM 21.2 °F 11.7 °F 15.8 °F 80% 30.32 in 10.0 mi East 8.1 mph - N/A   Clear
5:34 PM 19.4 °F 10.4 °F 12.2 °F 74% 30.32 in 10.0 mi East 6.9 mph - N/A   Clear
5:54 PM 19.4 °F 14.3 °F 12.2 °F 74% 30.33 in 10.0 mi East 3.5 mph - N/A   Clear
6:14 PM 19.4 °F 12.8 °F 14.0 °F 80% 30.33 in 10.0 mi East 4.6 mph - N/A   Mostly Cloudy
6:34 PM 19.4 °F 12.8 °F 14.0 °F 80% 30.34 in 10.0 mi East 4.6 mph - N/A   Overcast
6:54 PM 19.4 °F - 14.0 °F 80% 30.34 in 10.0 mi Calm Calm - N/A   Overcast
7:14 PM 21.2 °F 16.4 °F 15.8 °F 80% 30.34 in 10.0 mi ENE 3.5 mph - N/A   Overcast
7:34 PM 21.2 °F 12.6 °F 15.8 °F 80% 30.34 in 7.0 mi East 6.9 mph - N/A   Overcast
7:54 PM 19.4 °F 14.3 °F 15.8 °F 86% 30.34 in 5.0 mi NE 3.5 mph - N/A Snow Light Snow
8:14 PM 19.4 °F 14.3 °F 15.8 °F 86% 30.35 in 10.0 mi NNE 3.5 mph - N/A   Overcast
8:34 PM 19.4 °F 14.3 °F 15.8 °F 86% 30.35 in 10.0 mi NNE 3.5 mph - N/A Snow Light Snow
8:54 PM 19.4 °F 11.5 °F 15.8 °F 86% 30.35 in 10.0 mi NE 5.8 mph - N/A   Overcast
9:14 PM 19.4 °F 11.5 °F 14.0 °F 80% 30.35 in 10.0 mi NE 5.8 mph - N/A Snow Light Snow
9:34 PM 15.8 °F 10.2 °F 10.4 °F 79% 30.35 in 7.0 mi NE 3.5 mph - N/A Snow Light Snow
9:54 PM 14.0 °F - 10.4 °F 86% 30.36 in 7.0 mi Calm Calm - N/A Snow Light Snow
10:14 PM 14.0 °F - 10.4 °F 86% 30.36 in 10.0 mi Calm Calm - N/A   Clear
10:34 PM 14.0 °F - 10.4 °F 86% 30.37 in 10.0 mi Calm Calm - N/A   Clear
10:54 PM 14.0 °F - 8.6 °F 79% 30.37 in 7.0 mi Calm Calm - N/A   Scattered Clouds
11:14 PM 15.8 °F - 10.4 °F 79% 30.37 in 2.0 mi Calm Calm - N/A   Haze
11:34 PM 15.8 °F - 10.4 °F 79% 30.37 in 0.5 mi Calm Calm - N/A   Haze
11:54 PM 14.0 °F - 8.6 °F 79% 30.38 in 1.0 mi Calm Calm - N/A   Haze